FW6665 Weather Reports


Display with metric or nautical units.
time (UTC)temp
F
wind
direction
speed
MPH
gust
MPH
rain 1hr
in
rain 24hr
in
rain mn
in
humidity
%
barometer
mb
20260510170705 54 327 0.0 5.0 0.00 0.00 0.00 65 1011.8
20260510165704 54 310 0.0 5.0 0.00 0.00 0.00 66 1011.8
20260510165203 54 310 0.0 5.0 0.00 0.00 0.00 65 1011.8
20260510164705 54 309 1.0 5.0 0.00 0.00 0.00 65 1011.7
20260510164203 54 296 1.0 5.0 0.00 0.00 0.00 65 1011.8
20260510163704 54 0 1.0 5.0 0.00 0.00 0.00 65 1011.8
20260510163204 55 28 1.0 4.0 0.00 0.00 0.00 64 1012.0
20260510162704 55 47 0.0 4.0 0.00 0.00 0.00 64 1012.0
20260510162205 55 63 1.0 11.0 0.00 0.00 0.00 65 1012.1
20260510161705 55 326 1.0 11.0 0.00 0.00 0.00 65 1012.1
20260510161204 55 317 0.0 11.0 0.00 0.00 0.00 65 1012.2
20260510160704 55 337 2.0 5.0 0.00 0.00 0.00 65 1012.3
20260510155705 54 305 0.0 5.0 0.00 0.00 0.00 66 1012.3
20260510154704 54 347 1.0 4.0 0.00 0.00 0.00 67 1012.4
20260510154207 54 351 1.0 4.0 0.00 0.00 0.00 68 1012.5
20260510153704 54 354 1.0 3.0 0.00 0.00 0.00 68 1012.5
20260510152704 54 288 1.0 3.0 0.00 0.00 0.00 70 1012.6
20260510152205 54 314 0.0 4.0 0.00 0.00 0.00 71 1012.7
20260510151704 54 313 1.0 4.0 0.00 0.00 0.00 72 1012.7
20260510151204 53 313 0.0 4.0 0.00 0.00 0.00 71 1012.9
20260510150704 53 313 1.0 5.0 0.00 0.00 0.00 71 1012.9
20260510150204 53 329 0.0 5.0 0.00 0.00 0.00 71 1013.0
20260510145703 54 326 1.0 5.0 0.00 0.00 0.00 71 1013.1
20260510144705 54 306 0.0 4.0 0.00 0.00 0.00 70 1013.1
20260510143703 54 326 1.0 4.0 0.00 0.00 0.00 69 1013.3
20260510143204 54 327 1.0 4.0 0.00 0.00 0.00 69 1013.2
20260510142205 54 323 1.0 3.0 0.00 0.00 0.00 70 1013.4
20260510141704 54 323 1.0 3.0 0.00 0.00 0.00 69 1013.3
20260510141204 54 337 1.0 4.0 0.00 0.00 0.00 69 1013.4
20260510140704 54 330 1.0 4.0 0.00 0.00 0.00 69 1013.5
20260510140205 54 327 0.0 5.0 0.00 0.00 0.00 70 1013.5
20260510135704 54 324 1.0 5.0 0.00 0.00 0.00 69 1013.4
20260510135208 54 350 2.0 5.0 0.00 0.00 0.00 69 1013.5
20260510134205 55 347 0.0 5.0 0.00 0.00 0.00 69 1013.5
20260510133704 55 334 1.0 5.0 0.00 0.00 0.00 69 1013.6
20260510133207 55 338 0.0 5.0 0.00 0.00 0.00 69 1013.5
20260510132703 55 337 1.0 7.0 0.00 0.00 0.00 69 1013.5
20260510132204 55 358 2.0 7.0 0.00 0.00 0.00 69 1013.6
20260510131704 55 337 0.0 9.0 0.00 0.00 0.00 69 1013.7
20260510131205 55 336 2.0 9.0 0.00 0.00 0.00 70 1013.6
20260510130705 55 313 2.0 6.0 0.00 0.00 0.00 70 1013.7
20260510130204 55 306 0.0 6.0 0.00 0.00 0.00 70 1013.8
20260510125706 55 323 1.0 6.0 0.00 0.00 0.00 70 1013.9
20260510125204 55 309 1.0 6.0 0.00 0.00 0.00 70 1013.9
20260510124705 55 21 1.0 5.0 0.00 0.00 0.00 70 1014.0
20260510124205 55 31 1.0 5.0 0.00 0.00 0.00 70 1014.1
20260510123704 55 11 1.0 5.0 0.00 0.00 0.00 69 1014.0
20260510123204 55 336 2.0 5.0 0.00 0.00 0.00 69 1014.1
20260510121705 55 289 1.0 5.0 0.00 0.00 0.00 70 1014.0
20260510121205 55 321 2.0 5.0 0.00 0.00 0.00 69 1014.0
20260510120204 55 299 1.0 5.0 0.00 0.00 0.00 70 1014.2
20260510115705 56 327 2.0 5.0 0.00 0.00 0.00 69 1014.2
20260510115204 56 8 1.0 5.0 0.00 0.00 0.00 70 1014.2
20260510114705 56 20 2.0 5.0 0.00 0.00 0.00 70 1014.2
20260510114204 56 347 2.0 4.0 0.00 0.00 0.00 70 1014.3
20260510113705 56 324 2.0 6.0 0.00 0.00 0.00 71 1014.2
20260510113205 56 327 1.0 6.0 0.00 0.00 0.00 71 1014.2
20260510112205 55 0 2.0 6.0 0.00 0.00 0.00 72 1014.4
20260510111705 55 329 0.0 6.0 0.00 0.00 0.00 72 1014.5
20260510111205 55 337 2.0 6.0 0.00 0.00 0.00 72 1014.6
20260510110703 55 350 1.0 5.0 0.00 0.00 0.00 73 1014.6
20260510110205 55 324 1.0 4.0 0.00 0.00 0.00 73 1014.5
20260510105704 55 314 1.0 4.0 0.00 0.00 0.00 72 1014.5
20260510105204 55 320 0.0 7.0 0.00 0.00 0.00 71 1014.6
20260510104704 55 343 2.0 7.0 0.00 0.00 0.00 71 1014.6
20260510104205 55 350 1.0 7.0 0.00 0.00 0.00 71 1014.6
20260510103704 55 347 1.0 4.0 0.00 0.00 0.00 72 1014.6
20260510103204 55 348 1.0 4.0 0.00 0.00 0.00 72 1014.6
20260510102705 55 358 1.0 4.0 0.00 0.00 0.00 71 1014.6
20260510102204 55 0 0.0 6.0 0.00 0.00 0.00 72 1014.7
20260510101704 55 345 0.0 7.0 0.00 0.00 0.00 72 1014.5
20260510101204 55 345 1.0 7.0 0.00 0.00 0.00 73 1014.6
20260510100204 55 320 2.0 5.0 0.00 0.00 0.00 72 1014.4
20260510095705 55 340 2.0 5.0 0.00 0.00 0.00 72 1014.6
20260510095204 55 336 2.0 5.0 0.00 0.00 0.00 71 1014.5
20260510094204 56 305 1.0 4.0 0.00 0.00 0.00 71 1014.5
20260510093706 55 316 1.0 4.0 0.00 0.00 0.00 71 1014.5
20260510093205 55 340 1.0 4.0 0.00 0.00 0.00 71 1014.6
20260510092704 55 319 1.0 6.0 0.00 0.00 0.00 71 1014.6
20260510091704 55 350 2.0 5.0 0.00 0.00 0.00 71 1014.7
20260510091204 55 345 2.0 5.0 0.00 0.00 0.00 72 1014.7
20260510090705 55 316 1.0 5.0 0.00 0.00 0.00 73 1014.8
20260510090204 55 306 1.0 5.0 0.00 0.00 0.00 74 1014.8
20260510085704 54 254 2.0 5.0 0.00 0.00 0.00 73 1014.9
20260510085204 54 6 2.0 5.0 0.00 0.00 0.00 74 1015.0
20260510084704 54 343 1.0 5.0 0.00 0.00 0.00 74 1015.0
20260510084205 54 344 2.0 5.0 0.00 0.00 0.00 74 1015.0
20260510083204 54 323 2.0 9.0 0.00 0.00 0.00 74 1015.1
20260510081205 53 336 1.0 4.0 0.00 0.00 0.00 78 1015.0
20260510080705 53 312 1.0 4.0 0.00 0.00 0.00 78 1015.0
20260510080204 53 309 1.0 4.0 0.00 0.00 0.00 79 1015.1
20260510075704 53 306 2.0 5.0 0.00 0.00 0.00 79 1015.1
20260510074705 53 326 2.0 4.0 0.00 0.00 0.00 79 1015.0
20260510074204 53 327 1.0 4.0 0.00 0.00 0.00 80 1015.1
20260510073704 52 319 1.0 4.0 0.00 0.00 0.00 80 1015.1
20260510073204 52 319 2.0 5.0 0.00 0.00 0.00 80 1015.1
20260510072704 52 331 1.0 5.0 0.00 0.00 0.00 80 1015.1
20260510072205 52 320 1.0 3.0 0.00 0.00 0.00 81 1015.1
20260510071704 52 321 0.0 4.0 0.00 0.00 0.00 81 1015.0
20260510071204 52 321 1.0 4.0 0.00 0.00 0.00 81 1015.0
20260510070704 51 354 0.0 4.0 0.00 0.00 0.00 81 1015.0
20260510065705 51 353 1.0 5.0 0.00 0.00 0.00 82 1015.1
20260510065204 51 320 1.0 5.0 0.00 0.00 0.00 82 1015.1
20260510064204 51 279 2.0 7.0 0.00 0.00 0.00 82 1015.1
20260510063709 51 323 1.0 7.0 0.00 0.00 0.00 82 1015.2
20260510063205 51 296 1.0 7.0 0.00 0.00 0.00 82 1015.0
20260510062706 51 319 0.0 3.0 0.00 0.00 0.00 82 1015.1
20260510062203 51 319 0.0 5.0 0.00 0.00 0.00 82 1015.0
20260510061705 51 312 0.0 7.0 0.00 0.00 0.00 82 1015.0
20260510061204 50 312 1.0 7.0 0.00 0.00 0.00 83 1014.9
20260510060705 50 317 2.0 7.0 0.00 0.00 0.00 82 1014.9
20260510060204 50 293 2.0 6.0 0.00 0.00 0.00 83 1014.8
20260510055704 50 0 2.0 6.0 0.00 0.00 0.00 83 1014.8
20260510055204 50 329 0.0 6.0 0.00 0.00 0.00 83 1014.7
20260510054705 50 327 1.0 6.0 0.00 0.00 0.00 83 1014.7
20260510054205 50 299 1.0 6.0 0.00 0.00 0.00 83 1014.7
20260510053704 50 293 1.0 4.0 0.00 0.00 0.00 83 1014.6
20260510053204 49 309 0.0 4.0 0.00 0.00 0.00 83 1014.7
20260510052704 49 317 1.0 4.0 0.00 0.00 0.00 83 1014.6
20260510052204 49 303 0.0 4.0 0.00 0.00 0.00 83 1014.6
20260510051705 49 303 0.0 4.0 0.00 0.00 0.00 83 1014.6
20260510051204 49 302 1.0 4.0 0.00 0.00 0.00 83 1014.7
20260510050705 49 334 0.0 5.0 0.00 0.00 0.00 83 1014.7
20260510050204 49 338 1.0 5.0 0.00 0.00 0.00 83 1014.5
20260510045704 49 310 1.0 5.0 0.00 0.00 0.00 83 1014.6
20260510044205 49 319 0.0 5.0 0.00 0.00 0.00 83 1014.6
20260510043705 49 319 1.0 3.0 0.00 0.00 0.00 83 1014.7
20260510043205 49 329 1.0 4.0 0.00 0.00 0.00 83 1014.7
20260510042705 49 326 0.0 4.0 0.00 0.00 0.00 83 1014.7
20260510042204 49 326 0.0 4.0 0.00 0.00 0.00 82 1014.7
20260510041704 49 326 0.0 5.0 0.00 0.00 0.00 82 1014.8
20260510041204 49 326 0.0 5.0 0.00 0.00 0.00 82 1014.8
20260510040705 49 336 0.0 5.0 0.00 0.00 0.00 82 1014.8
20260510040205 49 298 1.0 5.0 0.00 0.00 0.00 82 1014.9
20260510035707 49 341 1.0 4.0 0.00 0.00 0.00 82 1014.9
20260510035204 49 307 0.0 3.0 0.00 0.00 0.00 82 1014.9
20260510034704 49 0 0.0 5.0 0.00 0.00 0.00 82 1015.0
20260510034204 49 348 0.0 5.0 0.00 0.00 0.00 82 1015.0
20260510033705 49 348 0.0 5.0 0.00 0.00 0.00 82 1015.0
20260510033204 49 292 1.0 5.0 0.00 0.00 0.00 82 1015.1
20260510032704 49 288 1.0 5.0 0.00 0.00 0.00 82 1015.1
20260510032204 49 0 1.0 5.0 0.00 0.00 0.00 82 1015.1
20260510031704 49 0 0.0 5.0 0.00 0.00 0.00 82 1015.1
20260510031204 49 4 2.0 4.0 0.00 0.00 0.00 83 1015.1
20260510030704 49 337 1.0 2.0 0.00 0.00 0.00 83 1015.3
20260510025706 49 323 0.0 6.0 0.00 0.00 0.00 83 1015.2
20260510024204 49 299 1.0 7.0 0.00 0.00 0.00 83 1015.3
20260510023705 49 319 1.0 4.0 0.00 0.00 0.00 83 1015.3
20260510023204 49 317 1.0 5.0 0.00 0.00 0.00 83 1015.2
20260510022704 49 337 0.0 5.0 0.00 0.00 0.00 83 1015.2
20260510022204 49 345 1.0 5.0 0.00 0.00 0.00 83 1015.1
20260510021204 49 0 1.0 5.0 0.00 0.00 0.00 83 1015.1
20260510015704 49 306 0.0 4.0 0.00 0.00 0.00 82 1015.1
20260510014703 50 316 0.0 2.0 0.00 0.00 0.00 82 1015.2
20260510014204 50 316 0.0 2.0 0.00 0.00 0.00 82 1015.3
20260510013704 50 316 0.0 2.0 0.00 0.00 0.00 82 1015.4
20260510013205 50 316 0.0 2.0 0.00 0.00 0.00 82 1015.4
20260510012705 50 316 0.0 2.0 0.00 0.00 0.00 82 1015.3
20260510011704 50 319 0.0 2.0 0.00 0.00 0.00 81 1015.4
20260510011204 50 319 0.0 2.0 0.00 0.00 0.00 81 1015.3
20260510010705 50 319 0.0 3.0 0.00 0.00 0.00 80 1015.3
20260510010205 50 320 0.0 3.0 0.00 0.00 0.00 80 1015.2
20260510005704 51 320 0.0 3.0 0.00 0.00 0.00 79 1015.2
20260510005207 51 329 0.0 2.0 0.00 0.00 0.00 79 1015.2
20260510004704 51 330 0.0 2.0 0.00 0.00 0.00 78 1015.1
20260510004207 51 331 0.0 2.0 0.00 0.00 0.00 78 1015.1
20260510003704 51 334 0.0 4.0 0.00 0.00 0.00 77 1015.1
20260510002704 51 334 0.0 4.0 0.00 0.00 0.00 76 1015.2
20260510001704 51 25 0.0 3.0 0.00 0.00 0.00 74 1015.4
20260510001204 52 25 0.0 3.0 0.00 0.00 0.00 74 1015.3
20260510000705 52 56 0.0 3.0 0.00 0.00 0.00 74 1015.3
20260510000205 52 75 0.0 3.0 0.00 0.00 0.00 74 1015.3
20260509235204 52 79 0.0 2.0 0.00 0.00 0.00 75 1015.3
20260509234707 52 79 0.0 2.0 0.00 0.00 0.00 75 1015.3
20260509234204 52 85 0.0 2.0 0.00 0.00 0.00 75 1015.2
20260509233704 52 85 0.0 2.0 0.00 0.00 0.00 75 1015.1
20260509233205 52 85 0.0 3.0 0.00 0.00 0.00 75 1015.3
20260509232204 53 86 0.0 3.0 0.00 0.00 0.00 75 1015.5
20260509231704 53 97 0.0 2.0 0.00 0.00 0.00 74 1015.4
20260509230705 53 97 0.0 2.0 0.00 0.00 0.00 73 1015.5
20260509230204 53 97 0.0 2.0 0.00 0.00 0.00 72 1015.4
20260509225704 53 97 0.0 1.0 0.00 0.00 0.00 72 1015.5
20260509225205 53 97 0.0 1.0 0.00 0.00 0.00 71 1015.4
20260509224704 53 97 0.0 1.0 0.00 0.00 0.00 71 1015.3
20260509223204 53 97 0.0 2.0 0.00 0.00 0.00 70 1015.3
20260509222706 53 97 0.0 2.0 0.00 0.00 0.00 69 1015.2
20260509222204 54 97 0.0 2.0 0.00 0.00 0.00 69 1015.2
20260509221704 54 96 0.0 2.0 0.00 0.00 0.00 68 1015.3
20260509221205 54 97 0.0 2.0 0.00 0.00 0.00 67 1015.2
20260509220705 54 97 0.0 2.0 0.00 0.00 0.00 67 1015.4
20260509220204 54 97 0.0 2.0 0.00 0.00 0.00 66 1015.3
20260509215704 54 96 0.0 1.0 0.00 0.00 0.00 66 1015.3
20260509215205 54 96 0.0 1.0 0.00 0.00 0.00 65 1015.3
20260509214705 54 96 0.0 1.0 0.00 0.00 0.00 65 1015.3
20260509214205 54 96 0.0 1.0 0.00 0.00 0.00 64 1015.4
20260509213705 54 96 0.0 1.0 0.00 0.00 0.00 63 1015.3
20260509213204 55 96 0.0 1.0 0.00 0.00 0.00 63 1015.3
20260509212704 55 96 0.0 1.0 0.00 0.00 0.00 63 1015.2
20260509212205 55 96 0.0 1.0 0.00 0.00 0.00 62 1015.2
20260509211705 55 96 0.0 1.0 0.00 0.00 0.00 62 1015.2
20260509211204 55 96 0.0 1.0 0.00 0.00 0.00 61 1015.1
20260509210704 55 96 0.0 1.0 0.00 0.00 0.00 61 1015.0
20260509210204 55 96 0.0 1.0 0.00 0.00 0.00 60 1014.8
20260509204704 56 96 0.0 2.0 0.00 0.00 0.00 59 1014.9
20260509204204 56 96 0.0 2.0 0.00 0.00 0.00 59 1014.9
20260509203205 56 96 0.0 1.0 0.00 0.00 0.00 59 1014.8
20260509202704 56 96 0.0 1.0 0.00 0.00 0.00 58 1014.7
20260509202206 56 96 0.0 1.0 0.00 0.00 0.00 58 1014.8
20260509201704 57 96 0.0 2.0 0.00 0.00 0.00 58 1014.7
20260509201205 57 96 0.0 2.0 0.00 0.00 0.00 57 1014.8
20260509200704 57 96 0.0 3.0 0.00 0.00 0.00 57 1014.7
20260509200204 57 96 0.0 3.0 0.00 0.00 0.00 57 1014.7
20260509195704 57 96 0.0 3.0 0.00 0.00 0.00 57 1014.7
20260509195204 57 106 1.0 2.0 0.00 0.00 0.00 57 1014.7
20260509194704 57 106 0.0 2.0 0.00 0.00 0.00 56 1014.6
20260509194203 58 106 0.0 4.0 0.00 0.00 0.00 56 1014.7
20260509193704 58 104 0.0 4.0 0.00 0.00 0.00 55 1014.6
20260509193205 58 104 0.0 4.0 0.00 0.00 0.00 54 1014.4
20260509192704 58 103 1.0 4.0 0.00 0.00 0.00 53 1014.4
20260509192205 58 103 1.0 4.0 0.00 0.00 0.00 52 1014.4
20260509191704 59 166 0.0 4.0 0.00 0.00 0.00 51 1014.4
20260509191205 59 168 0.0 4.0 0.00 0.00 0.00 50 1014.5
20260509190204 60 134 1.0 4.0 0.00 0.00 0.00 49 1014.4
20260509185704 60 133 1.0 4.0 0.00 0.00 0.00 49 1014.4
20260509185206 60 109 1.0 4.0 0.00 0.00 0.00 49 1014.4
20260509184705 61 106 0.0 3.0 0.00 0.00 0.00 48 1014.5
20260509184205 61 107 1.0 5.0 0.00 0.00 0.00 48 1014.4
20260509183705 61 103 1.0 5.0 0.00 0.00 0.00 49 1014.3
20260509183204 61 106 0.0 5.0 0.00 0.00 0.00 49 1014.3
20260509182709 61 106 1.0 3.0 0.00 0.00 0.00 48 1014.3
20260509181705 62 135 1.0 3.0 0.00 0.00 0.00 48 1014.3
20260509181205 62 130 1.0 3.0 0.00 0.00 0.00 48 1014.3
20260509180705 63 144 1.0 3.0 0.00 0.00 0.00 48 1014.3
20260509180204 63 142 1.0 4.0 0.00 0.00 0.00 47 1014.1
20260509175705 63 118 1.0 4.0 0.00 0.00 0.00 47 1014.0
20260509174205 64 97 1.0 6.0 0.00 0.00 0.00 47 1013.9
20260509173704 64 118 1.0 4.0 0.00 0.00 0.00 46 1014.0
20260509173214 64 128 2.0 3.0 0.00 0.00 0.00 46 1014.0
20260509172705 64 125 1.0 3.0 0.00 0.00 0.00 46 1014.0
20260509171704 64 89 1.0 5.0 0.00 0.00 0.00 46 1014.1
20260509171204 65 94 2.0 6.0 0.00 0.00 0.00 44 1014.1